Location: Vancouver
(49.2500°N, 123.1330°W)
Time: 12:05:45
(UTC-07:00)

Iridium 21 - Visible Passes

Search period start: 23 June 2017 00:00
Search period end: 03 July 2017 00:00
Orbit: 776 x 779 km, 86.4° (Epoch: 22 June)

Date Brightness Start Highest point End Pass type
(mag) Time Alt. Az. Time Alt. Az. Time Alt. Az.
23 Jun 7.0 22:47:28 10° SW 22:52:15 36° WNW 22:57:04 10° N visible
24 Jun 6.1 22:13:24 10° SSW 22:18:34 61° W 22:23:45 10° N visible
25 Jun 8.1 23:23:10 10° WSW 23:26:24 16° WNW 23:29:39 10° NNW visible
26 Jun 7.6 22:48:08 10° SW 22:52:30 27° WNW 22:56:54 10° NNW visible
27 Jun 6.7 22:13:46 10° SSW 22:18:44 44° W 22:23:44 10° N visible
28 Jun 8.4 23:24:50 10° W 23:26:48 12° WNW 23:28:45 10° NW visible
29 Jun 8.1 22:49:01 10° WSW 22:52:48 20° WNW 22:56:36 10° NNW visible
30 Jun 7.4 22:14:17 10° SW 22:18:56 32° WNW 22:23:38 10° NNW visible
02 Jul 8.3 22:50:16 10° W 22:53:09 15° WNW 22:56:02 10° NNW visible
